Tracking 30970 objects as of 3-Jul-2025
HD Live streaming from Space Station
objects crossing your sky now

ONEWEB-0327

Track ONEWEB-0327 now!
10-day predictions
ONEWEB-0327 is classified as:


NORAD ID: 49196
Int'l Code: 2021-083L
Perigee: 1,195.5 km
Apogee: 1,197.7 km
Inclination: 87.9 °
Period: 109.2 minutes
Semi major axis: 7567 km
RCS: Unknown
Launch date: September 14, 2021
Source: United Kingdom (UK)
Launch site: TYURATAM MISSILE AND SPACE COMPLEX (TTMTR)
Your satellite tracking list
SAR LUPE 1
Track 1 satellite(s)




NASA's NSSDC Master Catalog

Two Line Element Set (TLE):
1 49196U 21083L   25183.89443553 -.00000003  00000-0 -39427-4 0  9997
2 49196  87.9132  44.8884 0001482  86.9947 273.1355 13.18766462183984
Source of the keplerian elements: AFSPC